Starlink 5185

operational
NORAD ID: 54100 Int'l Des: 2022-136 Owner: SPXS Country: US Constellation: starlink
LEOCIRCULAR

Starlink 5185について

説明を読み込み中...

リアルタイム位置

3D地球を読み込み中...

次回通過

高度履歴

Altitude vs Time

uPlot chart will show altitude changes over time

軌道要素

1 54100U 22136BB 25305.94905932 -.00000666 00000-0 -23780-4 0 9994
2 54100 53.2158 187.2834 0001475 89.0904 271.0257 15.08837588167704
Epoch: Nov 1, 2025 • Age: 35 hours

現在のステータス

高度 548.9 km
速度 7.59 km/s
衛星直下点 -28.27°S, 29.59°W
打ち上げ日 Oct 20, 2022
運用期間 3 years
タイプ internet

技術仕様

分類 Payload
質量 305.00 kg
乾燥質量 290.00 kg
総質量 305.00 kg
長さ 0.20 m
直径 2.80 m
スパン 9.00 m
形状 Box + pan
製造者 SPXS
バスタイプ Starlink
フェーズステータス In Orbit
所有者/国 SPXS/US

大規模コンステレーション

Loading constellations...